User: anonymous   Login
Location: ?????
(30.2541°N, 31.0910°E)
Time: 00:21:07
(UTC+00:00)
Language:

Cosmos 1833 Rocket - Orbit

View from above orbital plane
View from above orbital plane
View from above satellite
View from above satellite

Ground track
Ground track

The orbit data is extracted from the following two-line orbital elements,

1 17590U 87027B   23031.47813245  .00000208  00000-0  12759-3 0  9996
2 17590  71.0037 143.8131 0003607  25.3695 334.7605 14.16856499854850
Epoch (UTC): 31 January 2023 11:28:30
Eccentricity: 0.0003607
inclination: 71.0037°
perigee height: 833 km
apogee height: 838 km
right ascension of ascending node: 143.8131°
argument of perigee: 25.3695°
revolutions per day: 14.16856499
mean anomaly at epoch: 334.7605°
orbit number at epoch: 85485

The dashed part of the orbit path shows where the satellite is in the earth's shadow,  

DLR